When you browse on this site, cookies collect data to enhance your experience and personalize the content and advertising you see.
Visit our Privacy Policy to learn more. By continuing to use the site, you agree to this use of cookies and data.
  • In Hungary
  • List of Countries
  • For 7 days
  • Water Temperature
  • Weather Map
  • News
  • Weather Widgets
  • user-avatar
    Login

    Hourly Weather Lihachi

    Today, 18 October, Friday

    Time Temperature Precipitation Wind Pressure Humidity
    00:00 +8°C° 0 mm 4 mps 751 mmHg 76%
    01:00 +8°C° 0 mm 4 mps 751 mmHg 79%
    02:00 +7°C° 0 mm 4 mps 751 mmHg 82%
    03:00 +7°C° 0 mm 4 mps 750 mmHg 85%
    04:00 +7°C° 0 mm 4 mps 750 mmHg 87%
    05:00 +7°C° 0 mm 4 mps 750 mmHg 89%
    06:00 +8°C° 0 mm 3 mps 749 mmHg 91%
    07:00 +8°C° 0 mm 4 mps 749 mmHg 87%
    08:00 +10°C° 0 mm 4 mps 749 mmHg 83%
    09:00 +11°C° 0 mm 4 mps 749 mmHg 78%
    10:00 +13°C° 0 mm 4 mps 749 mmHg 73%
    11:00 +14°C° 0 mm 4 mps 749 mmHg 68%
    12:00 +17°C° 0 mm 4 mps 749 mmHg 63%
    13:00 +17°C° 0 mm 3 mps 749 mmHg 62%
    14:00 +18°C° 0 mm 3 mps 749 mmHg 60%
    15:00 +18°C° 0 mm 3 mps 748 mmHg 59%
    16:00 +17°C° 0 mm 3 mps 748 mmHg 65%
    17:00 +15°C° 0 mm 2 mps 748 mmHg 71%
    18:00 +14°C° 0 mm 2 mps 748 mmHg 76%
    19:00 +13°C° 0 mm 2 mps 749 mmHg 79%
    20:00 +13°C° 0 mm 2 mps 749 mmHg 81%
    21:00 +12°C° 0 mm 2 mps 749 mmHg 84%
    22:00 +12°C° 0 mm 2 mps 749 mmHg 86%
    23:00 +10°C° 0 mm 2 mps 749 mmHg 88%

    Tomorrow, 19 October, Saturday

    Time Temperature Precipitation Wind Pressure Humidity
    00:00 +10°C° 0 mm 2 mps 749 mmHg 91%
    01:00 +10°C° 0 mm 2 mps 750 mmHg 91%
    02:00 +10°C° 0 mm 2 mps 750 mmHg 92%
    03:00 +9°C° 0 mm 2 mps 750 mmHg 93%
    04:00 +9°C° 0 mm 2 mps 750 mmHg 92%
    05:00 +9°C° 0 mm 2 mps 751 mmHg 92%
    06:00 +8°C° 0 mm 2 mps 751 mmHg 92%
    07:00 +9°C° 0 mm 2 mps 751 mmHg 88%
    08:00 +10°C° 0 mm 2 mps 752 mmHg 84%
    09:00 +11°C° 0 mm 3 mps 752 mmHg 80%
    10:00 +12°C° 0 mm 3 mps 752 mmHg 75%
    11:00 +13°C° 0 mm 3 mps 752 mmHg 70%
    12:00 +14°C° 0 mm 3 mps 752 mmHg 65%
    13:00 +14°C° 0 mm 3 mps 752 mmHg 64%
    14:00 +14°C° 0 mm 3 mps 752 mmHg 62%
    15:00 +14°C° 0 mm 3 mps 752 mmHg 61%
    16:00 +14°C° 0 mm 2 mps 753 mmHg 67%
    17:00 +13°C° 0 mm 2 mps 753 mmHg 72%
    18:00 +12°C° 0 mm 2 mps 753 mmHg 78%
    19:00 +10°C° 0 mm 2 mps 753 mmHg 80%
    20:00 +10°C° 0 mm 2 mps 753 mmHg 83%
    21:00 +9°C° 0 mm 2 mps 754 mmHg 85%
    22:00 +9°C° 0 mm 2 mps 754 mmHg 87%
    23:00 +8°C° 0 mm 2 mps 754 mmHg 89%

    Day after tomorrow, 20 October, Sunday

    Time Temperature Precipitation Wind Pressure Humidity
    00:00 +8°C° 0 mm 2 mps 754 mmHg 91%
    01:00 +8°C° 0 mm 2 mps 755 mmHg 91%
    02:00 +8°C° 0 mm 2 mps 755 mmHg 91%
    03:00 +8°C° 0 mm 1 mps 755 mmHg 91%
    04:00 +8°C° 0 mm 1 mps 755 mmHg 91%
    05:00 +8°C° 0 mm 1 mps 755 mmHg 91%
    06:00 +8°C° 0 mm 1 mps 755 mmHg 92%
    07:00 +9°C° 0 mm 1 mps 755 mmHg 88%
    08:00 +10°C° 0 mm 1 mps 756 mmHg 84%
    09:00 +11°C° 0 mm 1 mps 756 mmHg 80%
    10:00 +12°C° 0 mm 1 mps 756 mmHg 74%
    11:00 +14°C° 0 mm 2 mps 756 mmHg 68%
    12:00 +15°C° 0 mm 2 mps 756 mmHg 62%
    13:00 +16°C° 0 mm 2 mps 756 mmHg 60%
    14:00 +16°C° 0 mm 2 mps 756 mmHg 57%
    15:00 +17°C° 0 mm 2 mps 755 mmHg 55%
    16:00 +15°C° 0 mm 2 mps 755 mmHg 61%
    17:00 +14°C° 0 mm 2 mps 755 mmHg 66%
    18:00 +13°C° 0 mm 2 mps 755 mmHg 71%
    19:00 +12°C° 0 mm 2 mps 755 mmHg 73%
    20:00 +12°C° 0 mm 2 mps 756 mmHg 75%
    21:00 +10°C° 0 mm 2 mps 756 mmHg 77%
    22:00 +10°C° 0 mm 2 mps 756 mmHg 79%
    23:00 +10°C° 0 mm 2 mps 755 mmHg 81%

    21 October, Monday

    Time Temperature Precipitation Wind Pressure Humidity
    00:00 +9°C° 0 mm 2 mps 755 mmHg 83%
    01:00 +9°C° 0 mm 2 mps 755 mmHg 85%
    02:00 +9°C° 0 mm 2 mps 755 mmHg 87%
    03:00 +8°C° 0 mm 2 mps 755 mmHg 89%
    04:00 +8°C° 0 mm 2 mps 755 mmHg 90%
    05:00 +8°C° 0 mm 2 mps 755 mmHg 90%
    06:00 +8°C° 0 mm 2 mps 755 mmHg 91%
    07:00 +9°C° 0 mm 3 mps 755 mmHg 88%
    08:00 +10°C° 0 mm 3 mps 755 mmHg 85%
    09:00 +10°C° 0 mm 3 mps 756 mmHg 82%
    10:00 +12°C° 0 mm 3 mps 755 mmHg 77%
    11:00 +13°C° 0 mm 3 mps 755 mmHg 72%
    12:00 +15°C° 0 mm 4 mps 755 mmHg 66%
    13:00 +15°C° 0 mm 4 mps 755 mmHg 64%
    14:00 +17°C° 0 mm 4 mps 755 mmHg 61%
    15:00 +18°C° 0 mm 4 mps 754 mmHg 58%
    16:00 +15°C° 0 mm 4 mps 754 mmHg 63%
    17:00 +14°C° 0 mm 3 mps 754 mmHg 68%
    18:00 +12°C° 0 mm 3 mps 754 mmHg 73%
    19:00 +12°C° 0 mm 3 mps 754 mmHg 73%
    20:00 +11°C° 0 mm 3 mps 754 mmHg 73%
    21:00 +11°C° 0 mm 3 mps 753 mmHg 74%
    22:00 +11°C° 0 mm 3 mps 753 mmHg 74%
    23:00 +10°C° 0 mm 4 mps 753 mmHg 74%

    22 October, Tuesday

    Time Temperature Precipitation Wind Pressure Humidity
    00:00 +10°C° 0 mm 4 mps 753 mmHg 74%
    01:00 +10°C° 0 mm 4 mps 753 mmHg 76%
    02:00 +10°C° 0 mm 4 mps 752 mmHg 77%
    03:00 +8°C° 0 mm 4 mps 752 mmHg 78%
    04:00 +8°C° 0 mm 4 mps 752 mmHg 80%
    05:00 +8°C° 0 mm 4 mps 752 mmHg 81%
    06:00 +8°C° 0 mm 4 mps 752 mmHg 83%
    07:00 +10°C° 0 mm 4 mps 751 mmHg 79%
    08:00 +9°C° 0 mm 5 mps 751 mmHg 75%
    09:00 +10°C° 0 mm 6 mps 751 mmHg 71%
    10:00 +13°C° 0 mm 6 mps 750 mmHg 65%
    11:00 +15°C° 0 mm 6 mps 750 mmHg 59%
    12:00 +16°C° 0 mm 7 mps 750 mmHg 54%
    13:00 +16°C° 0 mm 7 mps 749 mmHg 53%
    14:00 +17°C° 0 mm 7 mps 748 mmHg 52%
    15:00 +17°C° 0 mm 7 mps 748 mmHg 51%
    16:00 +16°C° 0 mm 7 mps 748 mmHg 53%
    17:00 +15°C° 0 mm 6 mps 747 mmHg 56%
    18:00 +14°C° 0 mm 6 mps 747 mmHg 58%
    19:00 +14°C° 0 mm 6 mps 747 mmHg 59%
    20:00 +14°C° 0 mm 6 mps 747 mmHg 59%
    21:00 +14°C° 0 mm 6 mps 747 mmHg 60%
    22:00 +14°C° 0 mm 5 mps 747 mmHg 66%
    23:00 +14°C° 0 mm 5 mps 747 mmHg 71%

    23 October, Wednesday

    Time Temperature Precipitation Wind Pressure Humidity
    00:00 +14°C° 0 mm 4 mps 747 mmHg 77%
    01:00 +13°C° 0 mm 4 mps 748 mmHg 77%
    02:00 +12°C° 0 mm 5 mps 748 mmHg 78%
    03:00 +10°C° 0 mm 5 mps 749 mmHg 78%
    04:00 +9°C° 0 mm 5 mps 750 mmHg 80%
    05:00 +8°C° 0 mm 5 mps 750 mmHg 81%
    06:00 +7°C° 0 mm 4 mps 751 mmHg 83%
    07:00 +7°C° 0 mm 5 mps 751 mmHg 79%
    08:00 +7°C° 0 mm 5 mps 752 mmHg 74%
    09:00 +7°C° 0 mm 5 mps 753 mmHg 70%
    10:00 +7°C° 0 mm 5 mps 753 mmHg 68%
    11:00 +8°C° 0 mm 5 mps 753 mmHg 65%
    12:00 +8°C° 0 mm 5 mps 754 mmHg 62%
    13:00 +8°C° 0 mm 4 mps 754 mmHg 61%
    14:00 +8°C° 0 mm 4 mps 754 mmHg 60%
    15:00 +9°C° 0 mm 3 mps 754 mmHg 59%
    16:00 +8°C° 0 mm 3 mps 754 mmHg 62%
    17:00 +7°C° 0 mm 2 mps 755 mmHg 65%
    18:00 +6°C° 0 mm 2 mps 755 mmHg 68%
    19:00 +6°C° 0 mm 2 mps 755 mmHg 69%
    20:00 +6°C° 0 mm 2 mps 755 mmHg 69%
    21:00 +6°C° 0 mm 1 mps 756 mmHg 70%
    22:00 +6°C° 0 mm 1 mps 756 mmHg 71%
    23:00 +5°C° 0 mm 1 mps 756 mmHg 73%
    Show more